Manhattan, KS

4:24 AM CDT on September 16, 2019 (GMT -0500)
Manhattan Regional

Weather History for KMHK - August, 2019

Change the Weather History Date:

Wednesday, August 21, 2019

  Actual Average Record
Temperature  
Mean Temperature 77 °F 76 °F  
Max Temperature 84 °F 89 °F 106 °F (2003)
Min Temperature 70 °F 64 °F 48 °F (2004)
Degree Days  
Heating Degree Days 0 0  
Month to date heating degree days 0 0  
Since 1 June heating degree days 4 12  
Since 1 July heating degree days 0 1  
Cooling Degree Days 12 12  
Month to date cooling degree days 305 275  
Year to date cooling degree days 1144 1081  
Since 1 June cooling degree days 1039 981  
Growing Degree Days 27 (Base 50)    
Moisture  
Dew Point 70 °F    
Average Humidity 79    
Maximum Humidity 93    
Minimum Humidity 65    
Precipitation  
Precipitation 0.10 in 0.16 in 0.37 in (2002)
Month to date precipitation 6.07 2.67  
Year to date precipitation 30.28 22.93  
Sea Level Pressure  
Sea Level Pressure 29.98 in    
Wind  
Wind Speed 8 mph (ENE)    
Max Wind Speed 25 mph    
Max Gust Speed 39 mph    
Visibility 10 miles    
Events Rain , Thunderstorm    
T = Trace of Precipitation, MM = Missing Value Source: NWS Daily Summary

Daily Weather History Graph

Daily Weather History Graph

Search for Another Location

Airport or City:

Astronomy

Aug. 21, 2019 Rise Set
Actual Time 6:45 AM CDT 8:13 PM CDT
Civil Twilight 6:17 AM CDT 8:41 PM CDT
Nautical Twilight 5:43 AM CDT 9:15 PM CDT
Astronomical Twilight 5:07 AM CDT 9:51 PM CDT
Moon 11:34 PM CDT (8/21) 12:19 PM CDT (8/21)
Length of Visible Light 14h 24m
Length of Day
13h 28m
Waning Gibbous, 69% of the Moon is Illuminated
Aug 21
Waning Gibbous
Aug 23
Last Quarter
Aug 30
New
Sep 5
First Quarter
Sep 13
Full

Hourly Weather History & Observations

Time (CDT) Temp. Heat Index Dew Point Humidity Pressure Visibility Wind Dir Wind Speed Gust Speed Precip Events Conditions
12:52 AM 81.0 °F 87.3 °F 75.9 °F 85% 29.94 in 10.0 mi Calm Calm - N/A   Partly Cloudy
2:52 AM 82.9 °F 88.0 °F 72.0 °F 69% 29.84 in 10.0 mi South 10.4 mph 20.7 mph N/A   Partly Cloudy
3:52 AM 79.0 °F - 72.0 °F 79% 29.88 in 10.0 mi Calm Calm - N/A   Clear
4:28 AM 84.0 °F 89.0 °F 71.1 °F 65% 29.93 in 10.0 mi SW 11.5 mph - N/A Thunderstorm Scattered Clouds
4:52 AM 84.0 °F 89.0 °F 71.1 °F 65% 29.93 in 10.0 mi North 17.3 mph 39.1 mph N/A Thunderstorm Mostly Cloudy
5:52 AM 71.1 °F - 66.9 °F 87% 29.99 in 10.0 mi ENE 17.3 mph 28.8 mph 0.09 in   Scattered Clouds
6:04 AM 70.0 °F - 68.0 °F 93% 30.04 in 10.0 mi ENE 11.5 mph 21.9 mph N/A   Scattered Clouds
6:16 AM 70.0 °F - 68.0 °F 93% 30.06 in 10.0 mi East 12.7 mph - N/A   Mostly Cloudy
6:40 AM 70.0 °F - 66.9 °F 90% 30.04 in 10.0 mi ENE 16.1 mph - 0.00 in Rain Light Rain
6:52 AM 70.0 °F - 66.9 °F 90% 30.01 in 10.0 mi NE 17.3 mph 31.1 mph 0.00 in   Partly Cloudy
7:52 AM 71.1 °F - 66.0 °F 84% 29.97 in 10.0 mi Variable 3.5 mph - N/A   Clear
8:52 AM 73.0 °F - 68.0 °F 84% 29.98 in 10.0 mi Calm Calm - N/A   Scattered Clouds
9:52 AM 73.9 °F - 70.0 °F 87% 30.00 in 10.0 mi SSW 3.5 mph - 0.01 in   Scattered Clouds
10:52 AM 75.9 °F - 70.0 °F 82% 30.04 in 10.0 mi WNW 5.8 mph - N/A   Clear
11:52 AM 78.1 °F - 70.0 °F 76% 30.07 in 10.0 mi Variable 5.8 mph - N/A   Partly Cloudy
12:52 PM 77.0 °F - 69.1 °F 76% 30.03 in 10.0 mi ENE 8.1 mph - 0.00 in Rain Light Rain
1:52 PM 79.0 °F - 69.1 °F 72% 29.96 in 10.0 mi East 11.5 mph - 0.00 in   Clear
2:42 PM 79.0 °F - 68.0 °F 69% 29.97 in 10.0 mi ENE 12.7 mph - N/A Thunderstorm Thunderstorm
2:52 PM 80.1 °F 83.2 °F 70.0 °F 71% 29.94 in 10.0 mi ENE 15.0 mph - N/A Thunderstorm Scattered Clouds
3:02 PM 80.1 °F 83.2 °F 70.0 °F 71% 29.96 in 10.0 mi ENE 12.7 mph - N/A   Scattered Clouds
3:39 PM 79.0 °F - 69.1 °F 72% 30.00 in 10.0 mi ENE 5.8 mph - N/A Thunderstorm Partly Cloudy
3:52 PM 79.0 °F - 69.1 °F 72% 29.97 in 10.0 mi ENE 8.1 mph - N/A Thunderstorm Scattered Clouds
4:00 PM 78.1 °F - 69.1 °F 74% 29.99 in 10.0 mi ENE 9.2 mph - N/A   Mostly Cloudy
4:25 PM 77.0 °F - 69.1 °F 76% 30.00 in 10.0 mi ENE 6.9 mph - N/A Thunderstorm Mostly Cloudy
4:40 PM 77.0 °F - 70.0 °F 79% 29.99 in 10.0 mi ENE 8.1 mph - N/A   Mostly Cloudy
4:52 PM 77.0 °F - 70.0 °F 79% 29.97 in 10.0 mi East 4.6 mph - 0.00 in Rain Light Rain
5:52 PM 75.9 °F - 71.1 °F 85% 29.98 in 10.0 mi NE 5.8 mph - 0.00 in   Mostly Cloudy
6:30 PM 77.0 °F - 70.0 °F 79% 29.99 in 10.0 mi NE 10.4 mph - N/A Thunderstorm Overcast
6:45 PM 75.9 °F - 69.1 °F 79% 29.99 in 10.0 mi ENE 6.9 mph - N/A   Overcast
6:52 PM 75.9 °F - 70.0 °F 82% 29.97 in 10.0 mi NE 6.9 mph - N/A   Overcast
7:52 PM 75.0 °F - 70.0 °F 84% 29.94 in 10.0 mi ENE 8.1 mph - N/A   Scattered Clouds
8:52 PM 73.9 °F - 70.0 °F 87% 29.95 in 10.0 mi NNE 6.9 mph - N/A   Overcast
9:52 PM 73.0 °F - 70.0 °F 90% 29.99 in 10.0 mi ENE 6.9 mph - N/A   Mostly Cloudy
10:52 PM 73.0 °F - 69.1 °F 87% 29.98 in 10.0 mi ENE 6.9 mph - N/A   Scattered Clouds
11:52 PM 72.0 °F - 69.1 °F 91% 29.96 in 10.0 mi NE 5.8 mph - N/A   Clear